Location: Cold Norton
(51.6667°N, 0.6667°E)
Time: 17:10:46
(UTC+00:00)

Cosmos 1400 Rocket - Pass Details

Date: 18 November 2025
Orbit: 476 x 514 km, 81.1° (Epoch: 10 December)

Event Time Altitude Azimuth Distance (km) Brightness Sun altitude
Rises 18:39:40 0° 202° (SSW) 2,618 6.6 -23.9°
Reaches altitude 10° 18:41:49 10° 207° (SSW) 1,732 5.7 -24.2°
Maximum altitude 18:45:34 55° 286° (WNW) 619 3.3 -24.8°
Enters shadow 18:45:38 55° 291° (WNW) 620 3.3 -24.8°
